カタログに戻る

DMSP 5D-2 F13 DEB

運用中SSO
NORAD 40568·DEBRIS·🇺🇸 United States

打ち上げ Mar 24, 1995 から Vandenberg Space Force Base

Loading…

次のパス (今後24時間)

TLE

最新Source: Space-Track

元期: Sep 14, 2026, 01:45 UTC

1 40568U 95015EB  26257.07321065  .00002862  00000-0  97340-3 0  9993
2 40568  98.8332 294.2130 0026113 269.3375  90.4819 14.37187168593056

AllMySatでDMSP 5D-2 F13 DEBをリアルタイム追跡

Download on the App Store